1498320000.97,27937,23.0,74220.0,16.49,-26.17,-26.81,0,*40
1498320002.26,27938,23.0,74222.0,16.51,-26.17,-26.55,0,*4F
1498320003.55,27939,23.0,74222.5,16.51,-26.33,-26.81,0,*41
1498320004.79,27940,23.0,74222.5,16.49,-25.65,-25.97,0,*42
1498320006.03,27941,23.0,74222.8,16.49,-26.03,-26.29,0,*46
1498320007.23,27942,23.0,74220.5,16.49,-26.23,-26.61,0,*4B
1498320008.49,27943,23.0,74220.0,16.49,-26.33,-26.71,0,*4A
1498320009.75,27944,23.0,74222.0,16.47,-26.13,-26.49,0,*4A
1498320011.01,27945,23.0,74222.8,16.49,-26.13,-26.17,0,*4E
1498320012.21,27946,23.0,74224.3,16.49,-24.97,-24.97,0,*49
1498320013.48,27947,23.0,74220.8,16.51,-24.71,-24.97,0,*49
1498320014.72,27948,23.0,74220.0,16.51,-25.35,-25.49,0,*45
1498320015.96,27949,23.0,74222.3,16.53,-25.49,-25.75,0,*42
1498320017.23,27950,23.0,74220.5,16.51,-25.55,-25.65,0,*44
1498320018.44,27951,23.0,74222.0,16.53,-25.13,-25.13,0,*44
1498320019.68,27952,23.0,74224.0,16.51,-25.39,-25.49,0,*42
1498320020.91,27953,23.0,74220.3,16.55,-25.13,-25.13,0,*40
1498320022.19,27954,23.0,74222.3,16.59,-25.29,-25.29,0,*4B
1498320023.45,27955,23.0,74222.5,16.55,-24.77,-24.83,0,*4D
1498320024.73,27956,23.0,74222.0,16.59,-24.15,-24.15,0,*49
1498320025.99,27957,23.0,74224.0,16.59,-24.41,-24.31,0,*4F
1498320027.24,27958,23.0,74224.3,16.59,-24.93,-24.87,0,*42
1498320028.44,27959,23.0,74220.8,16.61,-24.57,-24.57,0,*4D
1498320029.72,27960,23.0,74220.5,16.63,-24.41,-24.41,0,*45
1498320031.0,27961,23.0,74218.3,16.63,-24.11,-24.11,0,*44
1498320032.25,27962,23.0,74220.5,16.63,-23.89,-23.85,0,*4B
1498320033.5,27963,23.0,74220.8,16.65,-23.85,-23.69,0,*42
1498320034.73,27964,23.0,74220.0,16.65,-24.05,-23.95,0,*49
1498320035.99,27965,23.0,74224.0,16.65,-24.21,-24.21,0,*46
1498320037.25,27966,23.0,74220.3,16.67,-24.31,-24.11,0,*45
1498320038.45,27967,23.0,74220.3,16.69,-24.57,-24.51,0,*4E
1498320039.69,27968,23.0,74220.5,16.69,-24.71,-24.51,0,*45
1498320040.94,27969,23.0,74216.5,16.71,-24.05,-23.69,0,*42
1498320042.21,27970,23.0,74220.0,16.71,-24.57,-24.21,0,*46
1498320043.46,27971,23.0,74222.5,16.71,-25.09,-24.87,0,*41
1498320044.71,27972,23.0,74218.8,16.71,-24.67,-24.35,0,*42
1498320045.96,27973,23.0,74222.3,16.71,-25.35,-25.03,0,*41
1498320047.22,27974,23.0,74222.5,16.71,-26.49,-26.17,0,*48
1498320048.42,27975,23.0,74220.5,16.69,-27.03,-26.87,0,*46
1498320049.63,27976,23.0,74216.5,16.65,-27.07,-26.65,0,*41
1498320050.87,27977,23.0,74222.3,16.65,-27.19,-26.77,0,*4C
1498320052.08,27978,23.0,74220.8,16.65,-27.51,-27.13,0,*4C
1498320053.31,27979,23.0,74222.0,16.61,-27.51,-26.97,0,*44
1498320054.54,27980,23.0,74222.3,16.59,-27.29,-26.45,0,*49
1498320055.8,27981,23.0,74220.3,16.55,-27.07,-26.29,0,*42
1498320057.05,27982,23.0,74222.5,16.55,-27.35,-26.49,0,*46
1498320058.31,27983,23.0,74222.0,16.51,-27.35,-26.49,0,*43
1498320059.54,27984,23.0,74220.5,16.51,-27.89,-26.87,0,*41
1498320060.83,27985,23.0,74220.0,16.47,-28.25,-27.23,0,*41
1498320062.1,27986,23.0,74222.5,16.47,-27.61,-26.61,0,*4A
1498320063.33,27987,23.0,74220.3,16.43,-27.35,-25.87,0,*45
1498320064.58,27988,23.0,74226.0,16.43,-27.19,-25.71,0,*4D
1498320065.79,27989,23.0,74222.5,16.39,-27.03,-25.35,0,*4A
1498320067.02,27990,23.0,74224.3,16.39,-26.87,-24.87,0,*47
1498320068.26,27991,23.0,74220.5,16.39,-26.87,-24.71,0,*4F
1498320069.52,27992,23.0,74220.8,16.33,-26.77,-24.35,0,*49
1498320070.78,27993,23.0,74222.8,16.33,-26.93,-24.51,0,*40
1498320072.01,27994,23.0,74222.5,16.33,-27.13,-24.51,0,*4E
1498320073.3,27995,23.0,74220.8,16.29,-26.77,-23.95,0,*48
1498320074.56,27996,23.0,74220.3,16.29,-27.67,-24.71,0,*46
1498320075.82,27997,23.0,74220.5,16.29,-26.71,-23.79,0,*4E
1498320077.03,27998,23.0,74222.8,16.23,-27.71,-24.47,0,*40
1498320078.29,27999,23.0,74220.3,16.23,-26.97,-23.69,0,*43
1498320079.58,28000,23.0,74220.3,16.21,-26.77,-23.19,0,*4E
1498320080.83,28001,23.0,74220.3,16.21,-24.87,-21.43,0,*4F
1498320082.07,28002,23.0,74222.5,16.21,-24.31,-20.69,0,*48
1498320083.3,28003,23.0,74224.8,16.23,-25.13,-21.57,0,*46
1498320084.56,28004,23.0,74220.3,16.21,-23.99,-20.25,0,*43
1498320085.8,28005,23.0,74220.5,16.23,-22.37,-18.55,0,*49
1498320087.01,28006,23.0,74226.0,16.27,-21.73,-17.73,0,*46
1498320088.27,28007,23.0,74220.3,16.29,-21.83,-17.69,0,*4D
1498320089.5,28008,23.0,74222.0,16.31,-21.63,-17.55,0,*4A
1498320090.74,28009,23.0,74224.0,16.33,-22.03,-17.87,0,*43
1498320091.96,28010,23.06,74226.3,16.37,-22.83,-18.79,0,*49
1498320093.25,28011,23.0,74224.3,16.37,-21.67,-17.41,0,*45
1498320094.51,28012,23.0,74224.8,16.37,-20.89,-16.65,0,*40
1498320095.71,28013,23.0,74226.3,16.39,-21.17,-16.93,0,*40
1498320096.92,28014,23.0,74224.3,16.39,-20.73,-16.55,0,*4E
1498320098.13,28015,23.0,74224.0,16.43,-19.75,-15.63,0,*48
1498320099.37,28016,23.0,74222.3,16.45,-19.61,-15.71,0,*4B
1498320100.63,28017,23.0,74220.0,16.47,-19.41,-15.63,0,*49
1498320101.88,28018,23.0,74224.0,16.47,-19.81,-15.95,0,*43
1498320103.17,28019,23.0,74224.8,16.47,-19.41,-15.81,0,*4B
1498320104.43,28020,23.0,74224.5,16.51,-17.93,-14.61,0,*48
1498320105.68,28021,23.0,74224.0,16.51,-18.25,-15.25,0,*4A
1498320106.93,28022,23.06,74226.8,16.53,-17.63,-14.79,0,*4E
1498320108.13,28023,23.0,74226.5,16.53,-16.89,-14.23,0,*45
1498320109.39,28024,23.0,74224.0,16.59,-16.83,-14.75,0,*41
1498320110.63,28025,23.0,74220.8,16.59,-16.41,-14.61,0,*4B
1498320111.87,28026,23.0,74222.0,16.61,-15.75,-14.47,0,*43
1498320113.09,28027,23.0,74226.3,16.61,-14.83,-14.11,0,*49
1498320114.32,28028,23.0,74222.5,16.63,-14.11,-14.11,0,*4F
1498320115.53,28029,23.0,74222.0,16.65,-13.69,-14.37,0,*44
1498320116.79,28030,23.0,74226.8,16.67,-13.19,-14.79,0,*43
1498320118.02,28031,23.0,74224.8,16.67,-12.47,-14.61,0,*41
1498320119.25,28032,23.0,74224.8,16.69,-12.83,-15.71,0,*44
1498320120.46,28033,23.0,74224.8,16.69,-13.11,-16.59,0,*46
1498320121.71,28034,23.0,74224.3,16.69,-13.61,-17.63,0,*4E
1498320122.95,28035,23.0,74224.5,16.71,-12.47,-16.59,0,*4B
1498320124.17,28036,23.0,74224.8,16.71,-12.43,-16.93,0,*4A
1498320125.39,28037,23.0,74222.8,16.71,-12.03,-16.93,0,*4F
1498320126.65,28038,23.06,74224.8,16.71,-11.63,-16.93,0,*45
1498320127.87,28039,23.0,74226.8,16.73,-11.73,-17.49,0,*41
1498320129.13,28040,23.06,74226.5,16.75,-10.97,-17.03,0,*4C
1498320130.37,28041,23.0,74224.5,16.75,-11.41,-17.83,0,*4F
1498320131.63,28042,23.06,74226.5,16.81,-11.15,-17.97,0,*43
1498320132.89,28043,23.0,74224.8,16.81,-11.19,-18.31,0,*4D
1498320134.09,28044,23.0,74224.8,16.83,-11.23,-18.83,0,*48
1498320135.32,28045,23.0,74226.0,16.83,-11.41,-19.31,0,*45
1498320136.59,28046,23.0,74224.5,16.85,-11.93,-20.25,0,*40
1498320137.83,28047,23.0,74224.3,16.85,-12.29,-20.89,0,*45
1498320139.06,28048,23.06,74228.3,16.87,-12.07,-20.69,0,*4A
1498320140.32,28049,23.0,74226.5,16.89,-12.75,-21.77,0,*4E
1498320141.56,28050,23.0,74224.8,16.87,-12.89,-21.87,0,*44
1498320142.8,28051,23.06,74228.3,16.87,-13.51,-22.21,0,*4E
1498320144.03,28052,23.06,74230.5,16.87,-13.73,-22.17,0,*48
1498320145.27,28053,23.06,74228.5,16.87,-13.61,-21.93,0,*45
1498320146.53,28054,23.06,74226.3,16.89,-14.47,-22.87,0,*49
1498320147.74,28055,23.0,74226.8,16.91,-15.71,-24.05,0,*49
1498320148.99,28056,23.06,74224.5,16.87,-14.93,-23.03,0,*41
1498320150.25,28057,23.06,74226.8,16.89,-15.25,-23.49,0,*4C
1498320151.51,28058,23.0,74226.5,16.89,-15.49,-23.85,0,*49
1498320152.74,28059,23.0,74224.5,16.87,-15.63,-23.99,0,*43
1498320153.99,28060,23.0,74226.8,16.89,-16.41,-24.67,0,*42
1498320155.23,28061,23.0,74226.5,16.87,-17.17,-25.13,0,*4D
1498320156.49,28062,23.0,74226.5,16.89,-17.87,-25.29,0,*40
1498320157.76,28063,23.06,74228.3,16.89,-18.65,-25.97,0,*47
1498320159.04,28064,23.0,74226.8,16.89,-19.61,-26.55,0,*48
1498320160.25,28065,23.0,74226.5,16.87,-18.83,-25.23,0,*48
1498320161.5,28066,23.06,74230.8,16.87,-20.15,-26.55,0,*4D
1498320162.75,28067,23.06,74226.5,16.87,-19.41,-25.29,0,*4F
1498320163.98,28068,23.06,74228.0,16.87,-20.15,-25.91,0,*48
1498320165.23,28069,23.0,74226.0,16.87,-23.03,-28.75,0,*4A
1498320166.51,28070,23.0,74224.8,16.85,-24.21,-29.73,0,*40
1498320167.77,28071,23.06,74230.3,16.83,-23.99,-29.17,0,*41
1498320169.05,28072,23.06,74230.8,16.77,-23.19,-28.09,0,*4F
1498320170.3,28073,23.06,74230.8,16.77,-22.97,-27.45,0,*4E
1498320171.55,28074,23.06,74226.5,16.75,-24.05,-28.79,0,*46
1498320172.75,28075,23.06,74224.8,16.73,-25.19,-29.67,0,*43
1498320174.0,28076,23.06,74224.5,16.71,-24.93,-29.01,0,*41
1498320175.23,28077,23.06,74224.3,16.69,-23.23,-27.07,0,*4D
1498320176.45,28078,23.06,74224.5,16.69,-23.85,-27.51,0,*4D
1498320177.71,28079,23.0,74224.3,16.65,-23.49,-26.93,0,*4F
1498320178.96,28080,23.06,74224.8,16.67,-23.13,-26.55,0,*4E
1498320180.2,28081,23.0,74224.3,16.67,-24.97,-28.31,0,*48
1498320181.43,28082,23.0,74222.5,16.65,-26.17,-29.57,0,*42
1498320182.69,28083,23.0,74224.3,16.63,-26.03,-29.17,0,*44
1498320183.94,28084,23.06,74224.5,16.61,-25.71,-28.75,0,*42
1498320185.17,28085,23.06,74224.0,16.61,-25.71,-28.53,0,*47
1498320186.45,28086,23.0,74222.3,16.55,-25.29,-27.83,0,*4C
1498320187.7,28087,23.0,74224.0,16.55,-26.29,-28.97,0,*44
1498320188.96,28088,23.06,74224.0,16.55,-26.65,-29.17,0,*4A
1498320190.19,28089,23.0,74222.0,16.53,-26.45,-28.91,0,*40
1498320191.46,28090,23.06,74226.8,16.51,-28.05,-30.45,0,*40
1498320192.73,28091,23.06,74224.8,16.47,-26.93,-29.13,0,*4C
1498320193.96,28092,23.06,74226.8,16.49,-27.13,-29.17,0,*4C
1498320195.2,28093,23.06,74226.0,16.47,-27.93,-29.83,0,*46
1498320196.43,28094,23.06,74224.3,16.43,-27.99,-29.79,0,*4A
1498320197.67,28095,23.06,74224.5,16.43,-26.65,-28.47,0,*45
1498320198.91,28096,23.06,74226.0,16.43,-26.33,-28.15,0,*42
1498320200.19,28097,23.06,74224.8,16.41,-26.13,-27.83,0,*43
1498320201.43,28098,23.06,74226.0,16.39,-27.29,-28.91,0,*47
1498320202.67,28099,23.0,74220.8,16.39,-28.63,-30.27,0,*43
1498320203.93,28100,23.06,74224.0,16.37,-28.09,-29.57,0,*4F
1498320205.18,28101,23.0,74222.0,16.33,-27.23,-28.69,0,*41
1498320206.47,28102,23.0,74222.5,16.33,-26.97,-28.43,0,*44
1498320207.71,28103,23.0,74222.0,16.33,-27.55,-28.85,0,*40
1498320208.92,28104,23.06,74226.0,16.31,-27.13,-28.31,0,*48
1498320210.19,28105,23.06,74226.0,16.29,-28.79,-30.27,0,*4D
1498320211.45,28106,23.06,74230.0,16.29,-29.23,-30.51,0,*41
1498320212.71,28107,23.06,74224.5,16.27,-28.21,-29.29,0,*4A
1498320213.96,28108,23.06,74226.3,16.23,-27.45,-28.75,0,*44
1498320215.2,28109,23.06,74224.8,16.23,-28.59,-29.67,0,*45
1498320216.46,28110,23.0,74224.3,16.21,-29.57,-30.55,0,*49
1498320217.72,28111,23.06,74224.5,16.19,-30.61,-31.85,0,*42
1498320218.96,28112,23.06,74226.5,16.15,-29.45,-30.39,0,*45
1498320220.17,28113,23.0,74222.5,16.15,-28.97,-29.83,0,*43
1498320221.44,28114,23.06,74226.8,16.13,-29.57,-30.73,0,*48
1498320222.67,28115,23.0,74222.8,16.11,-29.57,-30.39,0,*45
1498320223.88,28116,23.06,74222.8,16.11,-28.69,-29.57,0,*4A
1498320225.11,28117,23.06,74224.3,16.05,-30.39,-31.33,0,*49
1498320226.34,28118,23.06,74226.3,16.05,-28.97,-29.83,0,*49
1498320227.58,28119,23.06,74224.3,16.01,-28.37,-29.13,0,*4F
1498320228.78,28120,23.06,74226.0,16.03,-28.15,-28.85,0,*49
1498320229.99,28121,23.06,74226.3,16.03,-28.31,-29.13,0,*40
1498320231.23,28122,23.06,74224.3,16.03,-28.21,-29.13,0,*42
1498320232.5,28123,23.06,74224.8,16.01,-28.47,-29.35,0,*45
1498320233.7,28124,23.06,74226.0,15.99,-28.69,-29.45,0,*4B
1498320234.93,28125,23.06,74224.8,15.99,-28.75,-29.61,0,*41
1498320236.17,28126,23.06,74224.5,15.97,-28.43,-29.23,0,*4F
1498320237.41,28127,23.06,74224.8,15.97,-27.71,-28.47,0,*43
1498320238.67,28128,23.06,74226.5,15.99,-28.25,-28.91,0,*47
1498320239.91,28129,23.06,74224.5,15.97,-28.43,-29.23,0,*40
1498320241.15,28130,23.06,74226.5,15.95,-28.47,-29.35,0,*49
1498320242.39,28131,23.0,74222.5,15.93,-28.37,-29.13,0,*4D
1498320243.6,28132,23.06,74224.0,15.93,-28.15,-28.97,0,*43
1498320244.85,28133,23.06,74226.0,15.95,-28.05,-28.79,0,*45
1498320246.09,28134,23.06,74224.0,15.93,-27.99,-28.69,0,*4F
1498320247.33,28135,23.06,74224.5,15.93,-28.53,-29.29,0,*42
1498320248.56,28136,23.06,74226.3,15.91,-27.61,-28.31,0,*45
1498320249.76,28137,23.06,74224.3,15.91,-27.07,-27.77,0,*49
1498320250.98,28138,23.06,74224.5,15.91,-27.99,-28.69,0,*41
1498320252.21,28139,23.06,74224.8,15.89,-27.67,-28.37,0,*43
1498320253.47,28140,23.06,74224.5,15.89,-27.99,-28.75,0,*4A
1498320254.73,28141,23.06,74224.5,15.89,-29.35,-30.11,0,*48
1498320255.99,28142,23.06,74226.5,15.85,-28.47,-29.13,0,*49
1498320257.23,28143,23.06,74224.3,15.85,-27.71,-28.43,0,*46
1498320258.48,28144,23.06,74224.8,15.83,-28.43,-28.79,0,*40
1498320259.71,28145,23.06,74226.3,15.83,-27.77,-28.25,0,*40
1498320260.93,28146,23.06,74226.3,15.83,-27.51,-27.99,0,*4F
1498320262.14,28147,23.06,74222.0,15.83,-27.77,-28.31,0,*47
1498320263.39,28148,23.06,74224.0,15.83,-28.63,-29.17,0,*47
1498320264.61,28149,23.06,74224.3,15.81,-28.53,-28.97,0,*4E
1498320265.86,28150,23.06,74228.8,15.79,-27.35,-27.71,0,*49
1498320267.11,28151,23.06,74226.8,15.79,-27.71,-28.05,0,*44
1498320268.36,28152,23.06,74224.3,15.79,-27.99,-28.37,0,*40
1498320269.62,28153,23.06,74228.3,15.79,-28.21,-28.53,0,*4F
1498320270.85,28154,23.06,74230.3,15.77,-28.75,-28.75,0,*43
1498320272.11,28155,23.06,74226.0,15.75,-27.61,-27.77,0,*47
1498320273.33,28156,23.06,74226.3,15.75,-27.77,-27.71,0,*45
1498320274.56,28157,23.06,74226.3,15.75,-27.93,-27.89,0,*49
1498320275.78,28158,23.06,74226.5,15.73,-27.93,-27.61,0,*46
1498320277.01,28159,23.06,74226.5,15.73,-28.47,-28.15,0,*4D
1498320278.26,28160,23.06,74224.5,15.71,-28.91,-28.37,0,*4E
1498320279.52,28161,23.06,74228.8,15.69,-29.51,-29.01,0,*4F
1498320280.75,28162,23.06,74226.3,15.67,-29.57,-28.97,0,*4A
1498320282.0,28163,23.06,74226.0,15.67,-29.95,-29.29,0,*41
1498320283.25,28164,23.06,74224.3,15.63,-30.17,-29.45,0,*4A
1498320284.54,28165,23.06,74226.8,15.59,-31.51,-30.77,0,*48
1498320285.8,28166,23.06,74226.5,15.55,-31.11,-30.11,0,*43
1498320287.02,28167,23.06,74230.8,15.53,-31.17,-30.05,0,*47
1498320288.27,28168,23.06,74224.0,15.49,-30.55,-29.51,0,*4D
1498320289.5,28169,23.06,74226.0,15.47,-31.39,-30.27,0,*40
1498320290.74,28170,23.06,74224.8,15.39,-31.91,-30.39,0,*4C
1498320291.98,28171,23.06,74228.8,15.35,-31.11,-29.61,0,*4C
1498320293.25,28172,23.06,74226.0,15.37,-30.61,-29.17,0,*4A
1498320294.49,28173,23.06,74224.0,15.31,-30.51,-28.79,0,*47
1498320295.73,28174,23.06,74226.5,15.29,-30.39,-28.69,0,*46
1498320296.99,28175,23.06,74228.0,15.27,-30.05,-28.21,0,*4A
1498320298.24,28176,23.06,74226.3,15.27,-30.77,-28.91,0,*47
1498320299.45,28177,23.06,74226.8,15.23,-29.79,-27.93,0,*49
1498320300.74,28178,23.06,74226.3,15.17,-29.89,-28.05,0,*4E
1498320301.99,28179,23.06,74226.5,15.17,-29.79,-27.99,0,*4A
1498320303.2,28180,23.06,74226.0,15.13,-29.23,-27.55,0,*47
1498320304.45,28181,23.06,74228.8,15.13,-28.91,-27.23,0,*4F
1498320305.74,28182,23.06,74228.8,15.11,-28.91,-27.61,0,*48
1498320306.96,28183,23.06,74224.8,15.09,-28.31,-26.93,0,*46
1498320308.21,28184,23.06,74224.8,15.07,-28.47,-27.13,0,*47
1498320309.44,28185,23.06,74228.3,15.05,-28.53,-27.23,0,*42
1498320310.65,28186,23.06,74224.3,15.05,-27.07,-26.03,0,*4C
1498320311.9,28187,23.06,74222.8,15.05,-27.39,-26.55,0,*43
1498320313.11,28188,23.06,74226.0,15.05,-27.51,-26.61,0,*45
1498320314.39,28189,23.06,74224.5,15.03,-27.19,-26.33,0,*49
1498320315.6,28190,23.06,74224.0,15.01,-26.39,-25.49,0,*4E
1498320316.81,28191,23.06,74226.8,15.01,-26.07,-25.39,0,*45
1498320318.04,28192,23.06,74226.8,14.99,-26.45,-25.65,0,*49
1498320319.27,28193,23.06,74226.5,14.99,-25.13,-24.31,0,*48
1498320320.53,28194,23.06,74224.8,14.99,-26.93,-26.07,0,*43
1498320321.77,28195,23.06,74224.3,14.99,-26.65,-25.49,0,*42
1498320323.04,28196,23.06,74224.5,14.95,-26.81,-25.49,0,*47
1498320324.32,28197,23.06,74224.3,14.95,-26.33,-25.03,0,*41
1498320325.53,28198,23.06,74226.3,15.01,-26.07,-24.51,0,*43
1498320326.76,28199,23.06,74226.8,14.95,-27.13,-25.65,0,*4C
1498320328.05,28200,23.06,74222.3,14.95,-26.81,-25.29,0,*4D
1498320329.31,28201,23.06,74226.3,14.91,-26.49,-25.03,0,*44
1498320330.54,28202,23.06,74226.5,14.89,-27.13,-25.55,0,*43
1498320331.77,28203,23.06,74226.5,14.89,-27.99,-26.61,0,*44
1498320333.01,28204,23.06,74228.8,14.87,-28.69,-27.03,0,*48
1498320334.24,28205,23.06,74224.5,14.83,-28.53,-27.07,0,*40
1498320335.44,28206,23.06,74226.8,14.81,-28.31,-26.87,0,*4C
1498320336.68,28207,23.06,74226.0,14.77,-26.93,-25.61,0,*49
1498320337.9,28208,23.06,74230.3,14.75,-26.23,-25.39,0,*42
1498320339.15,28209,23.06,74230.0,14.75,-26.71,-26.23,0,*4C
1498320340.36,28210,23.06,74228.0,14.69,-27.07,-27.03,0,*4A
1498320341.59,28211,23.06,74228.3,14.67,-27.51,-27.77,0,*45
1498320342.84,28212,23.06,74226.3,14.65,-26.13,-26.81,0,*4B
1498320344.1,28213,23.06,74226.3,14.63,-25.71,-27.03,0,*40
1498320345.34,28214,23.06,74228.0,14.61,-26.03,-27.61,0,*47
1498320346.59,28215,23.06,74228.0,14.61,-24.15,-26.29,0,*4E
1498320347.83,28216,23.06,74228.0,14.59,-23.43,-25.91,0,*42
1498320349.07,28217,23.06,74224.5,14.59,-22.53,-25.13,0,*49
1498320350.28,28218,23.06,74230.3,14.61,-22.37,-25.39,0,*47
1498320351.5,28219,23.06,74230.3,14.59,-22.67,-25.87,0,*4D
1498320352.72,28220,23.06,74228.8,14.61,-23.75,-27.03,0,*40
1498320353.96,28221,23.06,74230.0,14.61,-24.47,-28.05,0,*4E
1498320355.2,28222,23.06,74224.3,14.59,-24.77,-28.31,0,*42
1498320356.46,28223,23.06,74230.3,14.57,-24.21,-27.61,0,*44
1498320357.71,28224,23.06,74228.0,14.59,-23.29,-26.61,0,*43
1498320358.96,28225,23.06,74226.8,14.57,-23.99,-27.45,0,*40
1498320360.19,28226,23.06,74230.5,14.59,-24.77,-27.93,0,*41
1498320361.42,28227,23.06,74224.8,14.57,-24.93,-28.09,0,*48
1498320362.68,28228,23.06,74226.0,14.59,-24.11,-27.03,0,*46
1498320363.91,28229,23.06,74228.5,14.57,-23.95,-26.65,0,*43
1498320365.16,28230,23.06,74228.8,14.59,-23.95,-26.61,0,*41
1498320366.39,28231,23.06,74228.3,14.59,-24.61,-26.87,0,*44
1498320367.6,28232,23.06,74226.8,14.61,-24.05,-26.07,0,*46
1498320368.82,28233,23.06,74232.0,14.61,-24.05,-26.03,0,*43
1498320370.06,28234,23.06,74230.3,14.61,-24.25,-26.03,0,*46
1498320371.3,28235,23.06,74230.3,14.61,-24.77,-26.29,0,*48
1498320372.57,28236,23.06,74228.3,14.63,-24.71,-26.03,0,*47
1498320373.84,28237,23.06,74230.8,14.63,-24.87,-26.17,0,*4A
1498320375.08,28238,23.06,74228.3,14.63,-24.51,-25.65,0,*48
1498320376.29,28239,23.06,74224.3,14.65,-23.79,-24.61,0,*47
1498320377.56,28240,23.06,74230.0,14.67,-23.85,-24.67,0,*4E
1498320378.79,28241,23.06,74228.0,14.69,-24.15,-24.93,0,*44
1498320380.02,28242,23.06,74230.0,14.69,-23.99,-24.57,0,*4C
1498320381.24,28243,23.06,74228.0,14.71,-23.89,-24.31,0,*45
1498320382.45,28244,23.06,74228.5,14.77,-23.89,-24.31,0,*44
1498320383.65,28245,23.06,74224.3,14.77,-24.05,-24.31,0,*46
1498320384.9,28246,23.06,74228.5,14.77,-23.99,-24.15,0,*41
1498320386.16,28247,23.06,74226.8,14.79,-23.75,-23.65,0,*4C
1498320387.39,28248,23.06,74228.8,14.81,-23.75,-23.85,0,*4A
1498320388.63,28249,23.06,74230.5,14.81,-24.71,-24.57,0,*40
1498320389.87,28250,23.06,74228.3,14.85,-24.51,-24.25,0,*4B
1498320391.13,28251,23.06,74224.3,14.85,-24.71,-24.41,0,*4A
1498320392.35,28252,23.06,74230.3,14.85,-24.35,-23.95,0,*47
1498320393.61,28253,23.06,74230.0,14.87,-24.47,-23.99,0,*4D
1498320394.85,28254,23.06,74228.5,14.87,-25.87,-25.49,0,*4C
1498320396.08,28255,23.06,74226.3,14.87,-26.45,-25.87,0,*42
1498320397.34,28256,23.06,74228.0,14.89,-26.13,-25.55,0,*43
1498320398.58,28257,23.06,74230.0,14.87,-25.87,-25.19,0,*4A
1498320399.81,28258,23.06,74226.8,14.87,-25.61,-24.61,0,*43
1498320401.06,28259,23.06,74230.0,14.87,-25.13,-24.15,0,*44
1498320402.29,28260,23.06,74226.3,14.89,-24.77,-23.65,0,*43
1498320403.51,28261,23.06,74226.8,14.89,-25.13,-24.11,0,*45
1498320404.79,28262,23.06,74228.8,14.87,-24.83,-23.65,0,*44
1498320406.01,28263,23.06,74230.0,14.89,-25.09,-23.95,0,*47
1498320407.26,28264,23.06,74228.5,14.89,-26.13,-24.83,0,*48
1498320408.49,28265,23.06,74230.3,14.89,-26.71,-25.39,0,*4D
1498320409.74,28266,23.06,74230.3,14.87,-27.19,-25.87,0,*4A
1498320411.03,28267,23.06,74230.8,14.87,-27.61,-26.17,0,*4E
1498320412.26,28268,23.06,74224.0,14.83,-27.55,-26.07,0,*43
1498320413.49,28269,23.06,74226.0,14.83,-27.55,-25.91,0,*4E
1498320414.72,28270,23.06,74230.5,14.81,-27.07,-25.45,0,*4A
1498320415.97,28271,23.06,74226.0,14.79,-27.23,-25.39,0,*41
1498320417.23,28272,23.06,74226.0,14.79,-27.29,-25.45,0,*43
1498320418.47,28273,23.06,74226.8,14.77,-27.45,-25.49,0,*4A
1498320419.72,28274,23.06,74230.8,14.75,-27.23,-25.35,0,*44
1498320420.95,28275,23.06,74224.3,14.71,-27.29,-25.23,0,*4C
1498320422.16,28276,23.06,74224.8,14.69,-27.29,-25.23,0,*46
1498320423.39,28277,23.06,74230.3,14.69,-27.23,-24.93,0,*47
1498320424.63,28278,23.06,74230.3,14.65,-27.19,-24.83,0,*4C
1498320425.84,28279,23.06,74228.8,14.65,-27.29,-24.93,0,*4F
1498320427.1,28280,23.06,74230.0,14.63,-26.81,-24.57,0,*44
1498320428.35,28281,23.06,74230.8,14.61,-27.23,-24.71,0,*4A
1498320429.61,28282,23.06,74226.0,14.61,-26.77,-24.41,0,*4A
1498320430.9,28283,23.06,74226.8,14.59,-26.77,-24.25,0,*42
1498320432.16,28284,23.06,74226.0,14.57,-26.81,-24.21,0,*46
1498320433.42,28285,23.06,74228.8,14.55,-26.33,-23.59,0,*44
1498320434.67,28286,23.06,74226.8,14.55,-26.33,-23.59,0,*47
1498320435.91,28287,23.06,74228.3,14.53,-26.03,-23.29,0,*44
1498320437.17,28288,23.06,74226.0,14.55,-25.87,-23.23,0,*48
1498320438.45,28289,23.06,74228.0,14.55,-26.13,-23.23,0,*47
1498320439.69,28290,23.06,74228.0,14.53,-26.17,-23.13,0,*4E
1498320440.95,28291,23.06,74224.3,14.53,-25.97,-22.77,0,*47
1498320442.24,28292,23.06,74226.8,14.49,-25.55,-22.47,0,*42
1498320443.46,28293,23.06,74228.5,14.47,-25.35,-22.21,0,*4B
1498320444.65,28294,23.06,74228.0,14.47,-25.23,-21.93,0,*41
1498320445.85,28295,23.06,74228.0,14.47,-25.13,-21.73,0,*4D
1498320447.08,28296,23.06,74230.5,14.47,-24.83,-21.17,0,*44
1498320448.28,28297,23.06,74226.0,14.47,-24.35,-20.69,0,*40
1498320449.5,28298,23.06,74224.3,14.47,-24.47,-20.63,0,*40
1498320450.73,28299,23.06,74230.0,14.47,-24.47,-20.79,0,*4A
1498320451.94,28300,23.06,74226.0,14.47,-24.51,-20.63,0,*47
1498320453.18,28301,23.06,74226.8,14.45,-24.47,-20.39,0,*4C
1498320454.41,28302,23.06,74230.8,14.45,-23.79,-19.99,0,*45
1498320455.67,28303,23.06,74226.0,14.43,-24.15,-20.19,0,*4D
1498320456.94,28304,23.06,74224.3,14.45,-23.23,-19.31,0,*4E
1498320458.18,28305,23.06,74230.0,14.45,-22.73,-18.83,0,*43
1498320459.41,28306,23.06,74230.3,14.45,-22.67,-18.69,0,*41
1498320460.63,28307,23.06,74228.0,14.45,-22.83,-18.79,0,*4B
1498320461.88,28308,23.06,74224.3,14.45,-22.17,-18.21,0,*44
1498320463.12,28309,23.06,74226.8,14.47,-21.87,-17.87,0,*4E
1498320464.34,28310,23.06,74230.3,14.47,-21.43,-17.59,0,*4D
1498320465.56,28311,23.06,74230.3,14.47,-21.43,-17.55,0,*40
1498320466.81,28312,23.06,74228.3,14.49,-21.09,-17.11,0,*43
1498320468.06,28313,23.06,74230.0,14.49,-20.79,-16.79,0,*4B
1498320469.32,28314,23.06,74226.5,14.49,-19.99,-16.17,0,*40
1498320470.57,28315,23.06,74226.0,14.55,-20.25,-16.65,0,*44
1498320471.8,28316,23.06,74226.5,14.55,-20.39,-16.75,0,*4B
1498320473.06,28317,23.06,74228.3,14.55,-19.91,-16.17,0,*46
1498320474.29,28318,23.06,74224.8,14.57,-19.75,-16.13,0,*45
1498320475.55,28319,23.06,74226.5,14.59,-19.71,-16.09,0,*45
1498320476.79,28320,23.06,74226.3,14.59,-19.51,-15.67,0,*46
1498320478.05,28321,23.06,74230.0,14.59,-19.57,-15.53,0,*46
1498320479.3,28322,23.06,74226.8,14.61,-19.27,-15.07,0,*48
1498320480.5,28323,23.06,74226.0,14.61,-18.73,-14.61,0,*48
1498320481.73,28324,23.06,74226.8,14.63,-18.99,-14.61,0,*49
1498320483.0,28325,23.06,74228.8,14.63,-18.89,-14.43,0,*49
1498320484.22,28326,23.06,74224.5,14.63,-18.11,-13.73,0,*4F
1498320485.5,28327,23.06,74226.0,14.63,-18.31,-13.83,0,*43
1498320486.73,28328,23.06,74226.3,14.65,-17.63,-13.19,0,*41
1498320487.98,28329,23.06,74224.5,14.65,-17.21,-12.83,0,*44
1498320489.24,28330,23.06,74226.0,14.67,-16.55,-12.11,0,*47
1498320490.48,28331,23.06,74226.3,14.67,-15.99,-11.81,0,*4F
1498320491.72,28332,23.06,74226.3,14.67,-15.39,-11.23,0,*4E
1498320492.97,28333,23.06,74224.8,14.67,-14.97,-10.89,0,*4B
1498320494.22,28334,23.06,74228.0,14.71,-14.61,-10.67,0,*42
1498320495.48,28335,23.06,74226.0,14.71,-14.47,-10.85,0,*4B
1498320496.68,28336,23.06,74224.5,14.69,-14.33,-10.85,0,*42
1498320497.97,28337,23.06,74224.3,14.71,-13.79,-10.67,0,*4F
1498320499.2,28338,23.06,74228.5,14.71,-13.07,-10.23,0,*49